Location: Unspecified
(0.0000°N, 0.0000°E)
Time: 09:03:42
(UTC+00:00)

Envisat - Pass Details

Date: 21 February 2018
Orbit: 764 x 766 km, 98.2° (Epoch: 17 February)

Event Time Altitude Azimuth Distance (km) Brightness Sun altitude
Rises 20:19:26 0° 180° (S) 3,230 6.4 -30.9°
Reaches altitude 10° 20:21:50 10° 186° (S) 2,301 5.6 -31.5°
Maximum altitude 20:26:38 44° 258° (WSW) 1,049 4.0 -32.7°
Enters shadow 20:27:42 38° 291° (WNW) 1,143 4.1 -32.9°
Exits shadow 20:30:11 17° 323° (NW) 1,840 5.1 -33.5°
Drops below altitude 10° 20:31:26 10° 329° (NNW) 2,291 5.6 -33.8°
Sets 20:33:49 0° 336° (NNW) 3,214 6.4 -34.4°
